sat.trackr.live / text

‹ back to catalog

STARLINK-30841

NORAD 58208 · 2023-170C

PAYLOAD ACTIVE UNKNOWN

§ Identity

Operator
Country
US
Launch date
2023-11-03
Launch site
AFETR
Launch vehicle
Mass (kg)
RCS (m²)

Purposes: comms

External: N2YO · Heavens-Above · Gunter

§ Orbital elements

Epoch: 2026-09-20T03:06:09.747072Z

Period
94.27 min
Inclination
43.0012°
Eccentricity
0.0001139
Mean motion
15.27576175 rev/d
Perigee alt
482.3 km
Apogee alt
483.8 km
Semi-major
6,861.2 km
B*
5.8771e-6
RAAN
176.3626°
Arg perigee
264.7418°
Mean anomaly
95.3304°
Rev number
16,003

§ Raw data

STARLINK-308411 58208U 23170C   26263.12927948 -.00000100  00000+0  58771-5 0  99912 58208  43.0012 176.3626 0001139 264.7418  95.3304 15.27576175160032

JSON: /api/v1/satellites/58208 · /tle

For live sub-satellite position, see the globe view (requires WebGL).

§ Visibility from observer

Set your observer location to see the next 7 days of passes ≥ 10°. The values pass through the URL so the page stays shareable.

No JS? Fill the form by hand. The geolocation button needs JavaScript.